Wind_Speed
24 24 24 24 24 24 24 25 25 26 26 27 27 28 29 30 31 32 32 33 33 34 35 35 36 37 37 38 38 39 39 40 41 42 42 43 44 44 45 46 46 46 47
25 25 25 25 25 25 25 26 26 27 28 29 29 30 31 31 32 33 34 34 35 36 37 37 38 39 40 40 41 41 42 43 43 44 44 45 46 47 47 47 48 49 49
25 26 26 26 26 26 27 27 28 29 29 30 31 31 32 33 34 35 36 36 37 38 39 40 40 41 41 42 43 44 44 45 45 46 47 47 48 49 49 50 51 51 51
27 27 27 27 28 28 28 29 29 30 30 31 32 33 34 35 36 36 37 38 39 40 41 41 42 42 43 44 45 46 46 47 48 48 49 49 50 51 52 52 53 53 54
28 28 29 29 29 30 30 30 31 31 32 32 33 34 35 36 37 38 39 40 41 42 42 43 44 45 46 47 47 48 48 49 50 50 51 51 52 53 54 53 53 54 55
30 30 30 30 30 30 31 31 32 33 34 34 35 36 37 38 39 40 41 42 42 43 44 45 46 47 47 48 48 48 49 50 51 51 52 53 53 54 54 54 55 55 55
30 31 31 31 31 31 32 33 33 34 35 36 37 37 38 39 40 41 42 43 44 45 46 47 47 48 48 48 49 49 50 50 51 52 53 54 54 55 55 55 55 55 55
31 32 32 32 32 33 33 34 35 36 37 38 39 39 40 41 41 42 44 45 46 47 47 48 48 48 48 49 50 51 51 52 53 53 54 55 55 55 55 56 56 56 56
33 33 33 34 34 34 35 36 37 38 38 39 40 41 42 43 43 44 45 46 47 47 48 49 50 50 50 51 52 53 54 54 55 55 56 56 56 55 55 55 56 56 55
34 34 35 35 35 36 37 38 39 39 40 40 41 43 44 45 46 46 45 47 48 48 49 50 51 51 52 52 53 54 54 54 54 55 55 55 55 54 54 54 54 54 54
36 36 36 36 37 38 39 40 40 40 41 42 43 44 46 47 47 48 47 47 48 49 50 51 52 52 53 53 54 53 53 53 53 54 54 53 52 52 52 52 52 51 51
37 37 37 38 39 40 40 41 41 42 43 44 45 46 47 48 48 48 48 48 48 49 50 51 52 52 53 53 53 52 53 53 53 53 53 51 50 50 50 50 50 49 48
38 38 39 40 40 41 41 42 43 44 45 46 47 48 48 48 49 49 50 49 49 48 49 50 50 51 52 52 52 52 52 52 51 51 50 49 48 47 47 47 47 46 45
39 39 40 41 41 42 42 43 44 45 47 47 47 47 47 48 49 50 50 50 50 48 47 48 49 50 51 51 51 50 50 49 49 49 49 47 46 46 46 45 45 43 41
40 40 41 42 42 43 44 45 46 47 47 47 47 47 47 48 50 50 51 51 50 48 47 48 49 49 49 49 49 48 48 48 48 48 48 47 46 44 43 43 42 41 40
41 42 42 43 44 45 46 46 46 46 46 46 47 47 48 49 50 50 50 50 50 49 48 48 48 47 48 47 46 47 47 48 47 48 46 45 44 43 42 41 40 38 36
42 43 44 44 45 46 46 47 46 46 46 46 47 48 49 50 51 50 49 49 49 49 48 47 47 47 47 47 46 47 47 47 47 47 46 44 42 41 40 38 36 34 33
44 44 45 46 46 46 47 47 46 46 46 47 48 49 50 51 50 49 49 49 49 49 48 47 47 46 46 46 47 47 46 46 46 44 43 42 40 38 36 34 32 31 30
45 46 46 46 46 47 47 47 46 47 47 48 49 50 51 51 50 49 50 49 49 48 47 47 46 46 46 46 46 45 45 45 44 43 42 40 37 35 33 31 29 29 29
46 46 46 46 47 47 47 47 48 48 49 49 50 51 51 50 49 50 50 48 47 47 47 47 46 46 45 46 45 44 43 43 42 40 38 35 33 32 31 29 28 28 29
46 46 46 47 47 47 47 47 48 48 49 50 51 51 51 50 50 49 48 47 47 47 47 47 46 45 45 45 44 43 42 40 39 36 34 33 31 30 30 29 28 28 28
46 46 46 46 47 47 47 48 48 49 50 51 51 51 50 49 48 47 46 47 47 46 46 45 45 44 44 44 43 42 41 38 36 34 34 31 30 29 28 27 27 26 26
46 46 46 46 47 47 47 48 48 49 50 51 51 50 48 47 46 45 45 46 46 46 45 44 43 43 43 42 41 40 38 36 34 33 31 29 28 27 25 24 23 23 22
46 46 46 46 47 47 48 49 50 50 51 51 49 48 46 45 44 44 43 44 44 44 43 43 43 42 41 40 39 37 34 33 32 31 30 28 27 24 23 22 21 21 21
46 46 46 46 47 48 49 50 50 50 50 48 47 46 44 43 43 43 43 42 42 42 41 42 41 40 39 39 37 35 33 32 31 29 27 27 25 23 22 22 21 21 20
45 46 46 47 48 48 49 49 49 48 47 46 45 44 43 43 42 42 42 41 40 41 40 39 38 38 38 36 34 33 32 31 30 27 25 26 25 23 22 21 21 20 18
Wind_Direction
268 270 273 276 277 278 279 281 281 282 284 285 287 288 289 290 291 292 293 293 293 294 294 295 294 294 294 293 293 293 293 292 291 290 290 289 289 288 287 285 284 283 282
268 270 273 275 277 278 279 280 281 283 285 286 287 288 290 291 292 293 294 294 294 294 294 294 294 294 293 294 294 294 293 292 291 291 291 291 290 289 288 286 285 283 282
269 271 274 276 277 278 280 281 282 283 285 286 288 289 291 292 293 294 295 295 294 294 294 294 294 294 294 294 294 294 293 293 292 292 292 291 291 290 289 287 286 284 283
269 272 274 276 276 278 279 281 282 284 286 287 289 290 291 292 293 294 295 296 295 295 295 295 295 295 295 295 295 294 293 293 293 293 292 292 291 290 290 289 287 286 284
269 272 274 275 276 278 279 281 283 284 286 287 289 290 291 292 294 295 295 296 296 296 296 295 295 295 295 295 294 294 294 294 294 294 293 292 291 291 291 290 288 287 285
270 272 273 275 276 278 280 282 284 286 287 288 289 290 291 293 294 295 296 296 296 297 296 296 296 296 295 295 295 294 295 295 295 294 293 292 292 291 291 289 288 288 286
269 271 273 275 276 279 281 283 285 286 288 289 289 290 291 292 294 295 295 296 296 297 297 297 297 296 296 296 296 295 295 295 295 294 294 293 292 291 290 289 288 287 286
269 271 272 275 277 279 282 284 285 287 288 289 290 290 291 292 294 295 296 296 297 297 297 297 297 297 296 296 296 296 297 297 296 296 295 295 294 292 291 290 288 287 286
269 271 273 275 278 280 282 285 286 288 289 290 291 292 293 294 294 295 296 297 297 297 297 297 297 297 297 297 297 297 297 297 297 297 297 296 295 294 293 291 289 288 286
270 272 274 276 278 281 283 286 288 289 290 290 291 292 294 295 296 297 297 298 298 298 298 298 298 298 299 299 299 299 299 298 299 298 298 297 296 295 294 294 291 289 287
271 272 275 277 279 281 284 286 288 289 290 291 292 293 295 296 297 297 298 298 298 299 300 300 300 300 300 301 301 301 300 300 300 300 300 299 297 296 295 295 294 291 289
271 273 276 278 280 282 284 286 288 290 290 291 293 294 295 296 297 298 298 299 299 299 300 300 300 300 301 302 303 302 301 301 301 301 301 300 298 297 296 296 295 292 290
271 273 276 278 281 283 285 287 288 290 291 292 293 294 295 296 297 298 298 299 299 299 300 300 301 301 302 303 303 303 303 303 303 303 303 302 300 299 299 299 297 294 291
272 274 277 279 281 283 285 287 288 290 292 293 293 295 296 296 297 298 299 299 300 300 300 301 301 302 303 303 303 303 304 304 305 305 305 303 302 302 301 301 299 295 292
272 275 277 279 281 283 285 287 289 291 292 293 293 295 296 297 298 299 299 300 300 300 300 301 302 303 303 304 304 304 305 306 307 307 306 305 303 303 303 302 301 296 292
273 275 278 280 282 283 285 287 289 291 292 293 294 295 296 298 299 300 300 300 301 301 301 302 303 303 304 305 305 305 306 308 308 308 308 306 305 304 304 304 301 298 295
273 276 278 280 282 284 286 287 289 290 291 293 294 296 297 299 300 300 300 301 301 301 301 303 303 304 304 305 306 306 307 308 308 308 308 308 306 305 305 305 302 300 298
273 276 278 280 282 284 286 287 288 289 291 293 294 296 297 299 300 300 301 301 300 300 301 302 303 304 304 306 307 307 307 308 310 310 310 309 307 307 307 306 302 302 301
274 277 279 280 282 283 285 287 288 290 291 293 295 296 297 298 298 299 301 301 300 300 301 302 303 304 304 306 307 308 308 309 310 311 310 309 307 307 307 305 302 303 304
275 277 278 280 281 283 285 286 288 289 291 293 295 296 297 298 298 299 300 300 299 299 300 301 303 304 305 307 308 308 309 309 310 312 311 310 308 307 306 305 303 303 303
275 277 278 280 282 283 284 286 288 290 291 293 295 296 297 297 298 298 298 298 299 299 299 300 302 303 304 306 307 308 308 308 311 311 311 311 309 309 307 305 305 304 304
275 276 278 280 282 284 285 287 288 290 292 294 295 296 296 296 296 297 297 298 299 299 299 300 302 303 304 305 306 307 307 307 308 309 309 309 308 309 308 306 306 306 306
274 277 278 280 282 284 285 287 289 291 292 294 295 295 295 295 295 296 296 298 299 299 300 300 301 303 304 305 306 307 307 307 308 308 307 308 309 310 309 310 311 313 313
274 276 278 281 282 284 286 287 289 291 293 294 294 294 294 294 295 296 297 297 298 299 299 299 301 303 304 305 306 307 307 308 309 308 306 307 309 308 309 312 313 315 315
274 276 278 280 282 284 286 288 290 291 292 293 293 293 293 294 295 295 296 297 298 299 298 299 301 302 303 305 305 306 306 308 309 307 307 308 309 305 305 308 310 312 312
274 276 279 281 283 285 287 289 290 291 292 292 293 293 293 294 294 295 296 297 298 299 299 299 300 301 303 304 305 306 307 308 308 307 306 307 307 304 304 307 308 308 308
Height
5834 5834 5834 5833 5832 5832 5831 5830 5828 5827 5826 5824 5822 5821 5819 5816 5814 5812 5810 5807 5805 5802 5799 5797 5794 5791 5788 5785 5782 5779 5776 5773 5770 5767 5764 5761 5758 5756 5753 5751 5748 5746 5744
5829 5829 5829 5828 5828 5827 5826 5824 5823 5822 5820 5818 5817 5815 5813 5810 5808 5805 5803 5800 5798 5795 5792 5789 5785 5782 5779 5776 5773 5769 5766 5763 5760 5757 5753 5750 5747 5744 5741 5739 5736 5733 5731
5824 5824 5824 5823 5822 5821 5820 5819 5818 5816 5815 5813 5811 5809 5806 5804 5801 5798 5796 5793 5790 5787 5783 5780 5776 5773 5770 5766 5763 5759 5756 5752 5749 5746 5742 5739 5736 5732 5729 5726 5723 5720 5718
5819 5819 5818 5818 5817 5816 5815 5813 5812 5810 5809 5807 5805 5802 5800 5797 5794 5791 5788 5785 5781 5778 5774 5771 5767 5763 5760 5756 5752 5748 5745 5741 5737 5734 5730 5727 5723 5720 5716 5712 5709 5706 5703
5813 5813 5812 5812 5811 5810 5808 5807 5806 5804 5802 5800 5798 5796 5793 5790 5787 5784 5780 5776 5772 5769 5765 5761 5757 5753 5749 5745 5741 5737 5733 5729 5725 5721 5717 5714 5710 5706 5702 5698 5694 5691 5688
5807 5807 5806 5805 5805 5803 5802 5801 5799 5797 5795 5793 5791 5789 5786 5783 5779 5775 5772 5768 5764 5759 5755 5751 5747 5743 5739 5734 5730 5725 5721 5717 5712 5708 5704 5700 5696 5691 5687 5683 5680 5676 5673
5801 5800 5800 5799 5798 5797 5796 5794 5792 5790 5788 5786 5783 5781 5778 5775 5772 5767 5763 5759 5754 5750 5745 5740 5736 5732 5727 5723 5718 5713 5709 5704 5699 5695 5690 5686 5681 5676 5672 5668 5664 5661 5657
5794 5793 5793 5792 5791 5790 5788 5787 5785 5783 5780 5777 5775 5772 5770 5768 5763 5759 5754 5749 5744 5739 5734 5729 5725 5720 5715 5711 5706 5701 5696 5691 5686 5681 5676 5671 5666 5661 5656 5652 5648 5644 5641
5787 5786 5786 5785 5784 5783 5781 5779 5777 5774 5772 5769 5766 5762 5759 5757 5754 5751 5745 5739 5734 5728 5723 5718 5714 5708 5703 5698 5693 5688 5683 5677 5672 5667 5661 5656 5650 5645 5640 5635 5631 5627 5624
5780 5779 5779 5778 5776 5775 5773 5771 5769 5766 5763 5761 5757 5753 5750 5745 5742 5740 5736 5729 5723 5717 5712 5707 5702 5697 5691 5686 5680 5675 5669 5664 5658 5652 5647 5641 5635 5630 5624 5619 5615 5611 5607
5772 5771 5771 5770 5768 5767 5765 5762 5760 5757 5754 5751 5748 5744 5740 5735 5730 5727 5724 5720 5714 5707 5701 5695 5690 5684 5679 5673 5667 5662 5656 5650 5644 5638 5632 5626 5621 5615 5610 5605 5600 5595 5591
5764 5763 5762 5761 5760 5758 5756 5754 5751 5748 5745 5741 5738 5734 5729 5725 5720 5715 5712 5708 5703 5697 5690 5684 5678 5672 5666 5660 5655 5649 5643 5637 5631 5625 5619 5613 5607 5602 5596 5591 5586 5581 5577
5756 5755 5754 5752 5751 5749 5747 5744 5742 5738 5735 5731 5727 5723 5718 5714 5709 5704 5700 5696 5691 5686 5680 5673 5667 5661 5655 5649 5643 5637 5631 5625 5618 5612 5606 5600 5594 5589 5584 5579 5573 5568 5564
5747 5746 5745 5743 5742 5740 5737 5734 5732 5728 5724 5720 5716 5712 5707 5703 5698 5693 5688 5683 5680 5676 5670 5663 5657 5650 5644 5638 5631 5625 5619 5613 5607 5601 5594 5588 5583 5578 5572 5567 5561 5556 5552
5738 5737 5735 5734 5732 5730 5727 5724 5721 5718 5714 5709 5705 5701 5697 5692 5687 5682 5676 5671 5667 5663 5660 5653 5646 5640 5633 5627 5620 5614 5608 5602 5596 5590 5583 5577 5572 5566 5561 5555 5550 5545 5541
5728 5727 5726 5724 5722 5720 5717 5714 5710 5707 5703 5699 5695 5691 5686 5681 5676 5670 5665 5660 5654 5650 5646 5642 5635 5629 5622 5616 5610 5603 5598 5592 5586 5579 5573 5567 5561 5556 5550 5545 5539 5535 5531
5718 5717 5716 5714 5712 5709 5706 5703 5700 5696 5692 5689 5684 5680 5675 5670 5665 5659 5654 5649 5643 5638 5634 5630 5624 5618 5612 5606 5600 5594 5588 5581 5575 5569 5562 5556 5551 5546 5540 5535 5530 5526 5522
5708 5707 5705 5703 5701 5698 5695 5692 5689 5686 5682 5678 5674 5669 5664 5659 5654 5648 5643 5638 5633 5627 5623 5619 5614 5608 5602 5596 5590 5584 5578 5571 5565 5559 5553 5547 5542 5536 5531 5526 5522 5518 5514
5698 5696 5695 5693 5690 5687 5685 5681 5678 5675 5671 5667 5663 5658 5653 5648 5643 5638 5633 5627 5622 5617 5612 5607 5603 5597 5592 5586 5580 5574 5568 5562 5556 5550 5544 5538 5533 5528 5524 5519 5515 5511 5507
5687 5685 5684 5681 5679 5676 5674 5671 5667 5664 5660 5656 5651 5647 5642 5636 5632 5627 5621 5616 5611 5606 5601 5597 5592 5587 5582 5576 5570 5565 5560 5553 5547 5541 5535 5530 5526 5521 5517 5513 5509 5505 5501
5676 5674 5672 5670 5668 5665 5662 5659 5656 5653 5649 5644 5640 5635 5630 5625 5620 5615 5610 5605 5600 5596 5591 5587 5582 5578 5572 5567 5561 5556 5551 5545 5540 5534 5529 5524 5519 5515 5511 5506 5502 5499 5495
5665 5663 5661 5659 5657 5654 5651 5648 5645 5641 5637 5633 5628 5623 5619 5614 5609 5604 5599 5594 5589 5584 5580 5576 5572 5567 5563 5557 5552 5546 5541 5537 5533 5528 5522 5518 5513 5509 5505 5500 5496 5492 5489
5653 5652 5650 5648 5645 5643 5640 5637 5633 5630 5625 5621 5616 5612 5607 5602 5597 5593 5589 5584 5579 5574 5570 5566 5562 5558 5553 5548 5543 5538 5533 5528 5524 5520 5515 5512 5508 5503 5499 5495 5491 5488 5484
5642 5640 5639 5637 5634 5631 5628 5625 5622 5618 5614 5609 5604 5600 5595 5591 5586 5582 5578 5574 5569 5565 5560 5556 5553 5549 5544 5539 5534 5530 5525 5521 5517 5513 5508 5506 5502 5498 5495 5491 5487 5484 5480
5630 5629 5627 5625 5623 5620 5617 5613 5610 5606 5602 5597 5593 5589 5584 5580 5576 5572 5568 5564 5560 5556 5551 5547 5544 5540 5535 5531 5526 5522 5518 5515 5512 5508 5503 5499 5496 5493 5490 5487 5484 5480 5477
5619 5617 5616 5613 5611 5608 5605 5601 5597 5594 5590 5586 5582 5578 5574 5570 5566 5562 5558 5555 5551 5547 5543 5539 5535 5532 5527 5523 5519 5515 5511 5508 5504 5501 5497 5494 5491 5487 5486 5483 5480 5476 5473